EGNS

Isle of Man Airport

Airport
ICAO code
EGNS
IATA Code
IOM
Summary
ICAO Region
EUR
ICAO Territory
Location

Near Castletown, Isle of Man

Serving
Isle of Man
Elevation
52 ft
Coordinates
54° 4' 56" N , 4° 37' 37" W
KCC
Metar
EGNS 212350Z 21023KT 9999 FEW009 09/08 Q0987

Description

Also formerly known as Ronaldsway Airport, the airport serves the whole of the Isle of Man, a self-governing British Crown Dependency.

Climatology

Temperate Marine climate/Oceanic climate (Köppen climate classification Cfb). Moderately cool summer and comparatively warm winter with a temperature range of only 14°C. Prevailing winds are south-westerly and whilst there is almost no risk of winter radiation fog or summer thunderstorms, the airport is exposed to a significant risk of advection fog between April and August.

Runways

Designator Length Width Surface Rops
17/35 903 27 ASP No/No
3/21 1255 46 ASP Yes/Yes
8/26 1837 46 ASP Yes/Yes

Airport map

Aerial View

SKYbrary Partners:

Safety knowledge contributed by: